Retour au catalogue

METEOR 1-12

ActifMétéoPO
NORAD 6079·PAYLOAD·🇷🇺 Russia

Lancé Jun 30, 1972 depuis Plesetsk Cosmodrome

Loading…

Prochains Passages (prochaines 24 heures)

TLE

FraisSource: Space-Track

Époque: Sep 14, 2026, 10:04 UTC

1 06079U 72049A   26257.41991303  .00000080  00000-0  43500-4 0  9990
2 06079  81.2234 261.2376 0009972 219.4681 140.5761 14.03592337773625

Suivez METEOR 1-12 en temps réel avec AllMySat

Download on the App Store